Time,TemperatureF,DewpointF,PressureIn,WindDirection,WindDirectionDegrees,WindSpeedMPH,WindSpeedGustMPH,Humidity,HourlyPrecipIn,Conditions,Clouds,dailyrainin,SoftwareType,DateUTC
2013-05-25 00:02:00,79.0,74.0,30.08,SE,125,0.0,0.0,86,0.00,,,0.00,,2013-05-25 04:02:00,
2013-05-25 00:13:00,79.0,74.0,30.08,SE,125,0.0,0.0,86,0.00,,,0.00,,2013-05-25 04:13:00,
2013-05-25 00:23:00,79.0,75.0,30.08,WSW,254,0.0,1.0,87,0.00,,,0.00,,2013-05-25 04:23:00,
2013-05-25 00:33:00,80.0,75.0,30.07,West,273,0.0,0.0,86,0.00,,,0.00,,2013-05-25 04:33:00,
2013-05-25 00:43:00,80.0,75.0,30.07,West,273,0.0,0.0,86,0.00,,,0.00,,2013-05-25 04:43:00,
2013-05-25 00:53:00,79.0,75.0,30.08,NW,323,0.0,0.0,87,0.00,,,0.00,,2013-05-25 04:53:00,
2013-05-25 01:02:00,79.0,75.0,30.08,NW,323,0.0,0.0,87,0.00,,,0.00,,2013-05-25 05:02:00,
2013-05-25 01:12:00,79.0,75.0,30.08,NW,323,0.0,0.0,87,0.00,,,0.00,,2013-05-25 05:12:00,
2013-05-25 01:22:00,78.0,74.0,30.08,West,281,0.0,3.0,89,0.00,,,0.00,,2013-05-25 05:22:00,
2013-05-25 01:32:00,78.0,74.0,30.08,WNW,285,1.0,2.0,89,0.00,,,0.00,,2013-05-25 05:32:00,
2013-05-25 01:43:00,78.0,74.0,30.08,WNW,285,1.0,2.0,89,0.00,,,0.00,,2013-05-25 05:43:00,
2013-05-25 01:52:00,78.0,74.0,30.08,NW,309,1.0,3.0,88,0.00,,,0.00,,2013-05-25 05:52:00,
2013-05-25 02:02:00,78.0,74.0,30.08,North,350,0.0,0.0,87,0.00,,,0.00,,2013-05-25 06:02:00,
2013-05-25 02:12:00,78.0,74.0,30.07,ENE,66,0.0,1.0,87,0.00,,,0.00,,2013-05-25 06:12:00,
2013-05-25 02:21:00,78.0,74.0,30.07,ENE,66,0.0,1.0,87,0.00,,,0.00,,2013-05-25 06:21:00,
2013-05-25 02:32:00,78.0,74.0,30.07,ENE,70,0.0,2.0,87,0.00,,,0.00,,2013-05-25 06:32:00,
2013-05-25 02:42:00,78.0,74.0,30.07,ENE,70,0.0,2.0,87,0.00,,,0.00,,2013-05-25 06:42:00,
2013-05-25 02:52:00,78.0,74.0,30.06,ENE,57,0.0,1.0,87,0.00,,,0.00,,2013-05-25 06:52:00,
2013-05-25 03:01:00,78.0,74.0,30.06,NE,39,0.0,1.0,87,0.00,,,0.00,,2013-05-25 07:01:00,
2013-05-25 03:11:00,78.0,74.0,30.06,NE,39,0.0,1.0,87,0.00,,,0.00,,2013-05-25 07:11:00,
2013-05-25 03:21:00,77.0,73.0,30.06,NE,46,0.0,1.0,88,0.00,,,0.00,,2013-05-25 07:21:00,
2013-05-25 03:32:00,77.0,73.0,30.06,ENE,58,0.0,1.0,88,0.00,,,0.00,,2013-05-25 07:32:00,
2013-05-25 03:42:00,77.0,73.0,30.06,ENE,58,0.0,1.0,88,0.00,,,0.00,,2013-05-25 07:42:00,
2013-05-25 03:52:00,77.0,74.0,30.06,NE,56,0.0,1.0,89,0.00,,,0.00,,2013-05-25 07:52:00,
2013-05-25 04:02:00,77.0,74.0,30.06,NE,55,0.0,0.0,90,0.00,,,0.00,,2013-05-25 08:02:00,
2013-05-25 04:11:00,77.0,74.0,30.06,NE,55,0.0,0.0,90,0.00,,,0.00,,2013-05-25 08:11:00,
2013-05-25 04:22:00,77.0,74.0,30.05,NE,55,0.0,0.0,91,0.00,,,0.00,,2013-05-25 08:22:00,
2013-05-25 04:32:00,77.0,74.0,30.05,NE,42,0.0,0.0,92,0.00,,,0.00,,2013-05-25 08:32:00,
2013-05-25 04:42:00,76.0,74.0,30.06,NE,42,0.0,1.0,92,0.00,,,0.00,,2013-05-25 08:42:00,
2013-05-25 04:52:00,76.0,74.0,30.06,NE,42,0.0,1.0,92,0.00,,,0.00,,2013-05-25 08:52:00,
2013-05-25 05:02:00,77.0,74.0,30.06,NE,42,0.0,1.0,92,0.00,,,0.00,,2013-05-25 09:02:00,
2013-05-25 05:11:00,77.0,74.0,30.06,NE,42,0.0,1.0,92,0.00,,,0.00,,2013-05-25 09:11:00,
2013-05-25 05:21:00,76.0,74.0,30.06,NE,43,0.0,0.0,92,0.00,,,0.00,,2013-05-25 09:21:00,
2013-05-25 05:33:00,76.0,74.0,30.06,NNE,18,0.0,1.0,93,0.00,,,0.00,,2013-05-25 09:33:00,
2013-05-25 05:43:00,76.0,74.0,30.06,NNE,18,0.0,1.0,93,0.00,,,0.00,,2013-05-25 09:43:00,
2013-05-25 05:53:00,76.0,74.0,30.06,NNE,21,0.0,0.0,93,0.00,,,0.00,,2013-05-25 09:53:00,
2013-05-25 06:03:00,76.0,74.0,30.07,NE,43,0.0,1.0,93,0.00,,,0.00,,2013-05-25 10:03:00,
2013-05-25 06:12:00,76.0,74.0,30.07,NE,43,0.0,1.0,93,0.00,,,0.00,,2013-05-25 10:12:00,
2013-05-25 06:23:00,76.0,74.0,30.07,NE,44,0.0,1.0,93,0.00,,,0.00,,2013-05-25 10:23:00,
2013-05-25 06:33:00,75.0,73.0,30.07,NE,36,0.0,1.0,92,0.00,,,0.00,,2013-05-25 10:33:00,
2013-05-25 06:42:00,75.0,73.0,30.07,NE,36,0.0,1.0,92,0.00,,,0.00,,2013-05-25 10:42:00,
2013-05-25 06:52:00,75.0,72.0,30.08,NE,36,0.0,0.0,91,0.00,,,0.00,,2013-05-25 10:52:00,
2013-05-25 07:02:00,75.0,72.0,30.08,NE,35,0.0,0.0,91,0.00,,,0.00,,2013-05-25 11:02:00,
2013-05-25 07:12:00,75.0,72.0,30.08,NE,35,0.0,0.0,91,0.00,,,0.00,,2013-05-25 11:12:00,
2013-05-25 07:22:00,75.0,71.0,30.09,NE,36,0.0,0.0,88,0.00,,,0.00,,2013-05-25 11:22:00,
2013-05-25 07:32:00,76.0,72.0,30.09,NE,35,0.0,0.0,87,0.00,,,0.00,,2013-05-25 11:32:00,
2013-05-25 07:42:00,76.0,72.0,30.09,NE,35,0.0,0.0,87,0.00,,,0.00,,2013-05-25 11:42:00,
2013-05-25 07:52:00,77.0,72.0,30.09,NE,35,0.0,0.0,86,0.00,,,0.00,,2013-05-25 11:52:00,
2013-05-25 08:01:00,79.0,73.0,30.10,NE,39,0.0,1.0,81,0.00,,,0.00,,2013-05-25 12:01:00,
2013-05-25 08:12:00,79.0,73.0,30.10,NE,39,0.0,1.0,81,0.00,,,0.00,,2013-05-25 12:12:00,
2013-05-25 08:22:00,79.0,72.0,30.10,NE,39,0.0,3.0,80,0.00,,,0.00,,2013-05-25 12:22:00,
2013-05-25 08:32:00,81.0,73.0,30.11,NE,37,0.0,2.0,78,0.00,,,0.00,,2013-05-25 12:32:00,
2013-05-25 08:42:00,81.0,73.0,30.11,NE,37,0.0,2.0,78,0.00,,,0.00,,2013-05-25 12:42:00,
2013-05-25 08:52:00,82.0,74.0,30.11,ENE,75,0.0,3.0,77,0.00,,,0.00,,2013-05-25 12:52:00,
2013-05-25 09:02:00,83.0,74.0,30.11,NE,46,2.0,8.0,74,0.00,,,0.00,,2013-05-25 13:02:00,
2013-05-25 09:11:00,83.0,74.0,30.11,NE,46,2.0,8.0,74,0.00,,,0.00,,2013-05-25 13:11:00,
2013-05-25 09:22:00,82.0,73.0,30.12,ENE,60,5.0,10.0,74,0.00,,,0.00,,2013-05-25 13:22:00,
2013-05-25 09:32:00,82.0,73.0,30.12,East,85,4.0,8.0,75,0.00,,,0.00,,2013-05-25 13:32:00,
2013-05-25 09:42:00,82.0,73.0,30.12,East,85,4.0,8.0,75,0.00,,,0.00,,2013-05-25 13:42:00,
2013-05-25 09:52:00,82.0,72.0,30.13,NE,50,5.0,11.0,73,0.00,,,0.00,,2013-05-25 13:52:00,
2013-05-25 10:02:00,83.0,72.0,30.13,East,82,3.0,11.0,70,0.00,,,0.00,,2013-05-25 14:02:00,
2013-05-25 10:11:00,83.0,72.0,30.13,East,82,3.0,11.0,70,0.00,,,0.00,,2013-05-25 14:11:00,
2013-05-25 10:22:00,83.0,71.0,30.14,NNE,26,6.0,16.0,67,0.00,,,0.00,,2013-05-25 14:22:00,
2013-05-25 10:32:00,84.0,71.0,30.15,NE,48,4.0,9.0,65,0.00,,,0.00,,2013-05-25 14:32:00,
2013-05-25 10:42:00,84.0,71.0,30.15,NE,48,4.0,9.0,65,0.00,,,0.00,,2013-05-25 14:42:00,
2013-05-25 10:52:00,84.0,70.0,30.15,NNE,18,4.0,11.0,64,0.00,,,0.00,,2013-05-25 14:52:00,
2013-05-25 11:01:00,85.0,70.0,30.15,ENE,62,5.0,10.0,62,0.00,,,0.00,,2013-05-25 15:01:00,
2013-05-25 11:11:00,85.0,70.0,30.15,ENE,62,5.0,10.0,62,0.00,,,0.00,,2013-05-25 15:11:00,
2013-05-25 11:22:00,85.0,70.0,30.16,East,82,4.0,10.0,61,0.00,,,0.00,,2013-05-25 15:22:00,
2013-05-25 11:33:00,85.0,70.0,30.16,East,100,3.0,10.0,60,0.00,,,0.00,,2013-05-25 15:33:00,
2013-05-25 11:43:00,85.0,70.0,30.16,East,100,3.0,10.0,60,0.00,,,0.00,,2013-05-25 15:43:00,
2013-05-25 11:53:00,86.0,70.0,30.16,East,89,4.0,9.0,59,0.00,,,0.00,,2013-05-25 15:53:00,
2013-05-25 12:03:00,86.0,70.0,30.16,NE,55,4.0,9.0,59,0.00,,,0.00,,2013-05-25 16:03:00,
2013-05-25 12:12:00,86.0,70.0,30.16,NE,55,4.0,9.0,59,0.00,,,0.00,,2013-05-25 16:12:00,
2013-05-25 12:23:00,85.0,68.0,30.16,NE,36,6.0,11.0,56,0.00,,,0.00,,2013-05-25 16:23:00,
2013-05-25 12:32:00,86.0,69.0,30.16,East,94,4.0,10.0,57,0.00,,,0.00,,2013-05-25 16:32:00,
2013-05-25 12:42:00,86.0,69.0,30.16,East,94,4.0,10.0,57,0.00,,,0.00,,2013-05-25 16:42:00,
2013-05-25 12:52:00,86.0,69.0,30.16,NNE,22,4.0,13.0,58,0.00,,,0.00,,2013-05-25 16:52:00,
2013-05-25 13:03:00,86.0,68.0,30.17,East,88,6.0,10.0,55,0.00,,,0.00,,2013-05-25 17:03:00,
2013-05-25 13:11:00,86.0,68.0,30.17,East,88,6.0,10.0,55,0.00,,,0.00,,2013-05-25 17:11:00,
2013-05-25 13:22:00,86.0,68.0,30.17,NE,53,3.0,14.0,55,0.00,,,0.00,,2013-05-25 17:22:00,
2013-05-25 13:32:00,87.0,69.0,30.16,NNE,32,5.0,11.0,55,0.00,,,0.00,,2013-05-25 17:32:00,
2013-05-25 13:42:00,87.0,69.0,30.16,NNE,32,5.0,11.0,55,0.00,,,0.00,,2013-05-25 17:42:00,
2013-05-25 13:52:00,87.0,69.0,30.16,ENE,60,4.0,11.0,55,0.00,,,0.00,,2013-05-25 17:52:00,
2013-05-25 14:02:00,86.0,68.0,30.16,NE,49,4.0,9.0,56,0.00,,,0.00,,2013-05-25 18:02:00,
2013-05-25 14:11:00,86.0,68.0,30.16,NE,49,4.0,9.0,56,0.00,,,0.00,,2013-05-25 18:11:00,
2013-05-25 14:21:00,87.0,69.0,30.16,East,81,5.0,11.0,55,0.00,,,0.00,,2013-05-25 18:21:00,
2013-05-25 14:32:00,86.0,69.0,30.15,NNE,30,5.0,12.0,57,0.00,,,0.00,,2013-05-25 18:32:00,
2013-05-25 14:42:00,86.0,69.0,30.15,NNE,30,5.0,12.0,57,0.00,,,0.00,,2013-05-25 18:42:00,
2013-05-25 14:52:00,87.0,69.0,30.15,East,81,4.0,11.0,56,0.00,,,0.00,,2013-05-25 18:52:00,
2013-05-25 15:02:00,86.0,68.0,30.15,NE,49,5.0,10.0,55,0.00,,,0.00,,2013-05-25 19:02:00,
2013-05-25 15:11:00,86.0,68.0,30.15,NE,49,5.0,10.0,55,0.00,,,0.00,,2013-05-25 19:11:00,
2013-05-25 15:22:00,86.0,68.0,30.14,ENE,60,4.0,12.0,56,0.00,,,0.00,,2013-05-25 19:22:00,
2013-05-25 15:32:00,86.0,68.0,30.14,NNE,13,5.0,10.0,56,0.00,,,0.00,,2013-05-25 19:32:00,
2013-05-25 15:42:00,86.0,68.0,30.14,NNE,13,5.0,10.0,56,0.00,,,0.00,,2013-05-25 19:42:00,
2013-05-25 15:52:00,87.0,70.0,30.14,East,79,4.0,10.0,58,0.00,,,0.00,,2013-05-25 19:52:00,
2013-05-25 16:02:00,85.0,69.0,30.14,East,84,4.0,14.0,59,0.00,,,0.00,,2013-05-25 20:02:00,
2013-05-25 16:11:00,85.0,69.0,30.14,East,84,4.0,14.0,59,0.00,,,0.00,,2013-05-25 20:11:00,
2013-05-25 16:22:00,85.0,70.0,30.13,East,88,4.0,9.0,60,0.00,,,0.00,,2013-05-25 20:22:00,
2013-05-25 16:32:00,84.0,69.0,30.13,ENE,60,4.0,14.0,60,0.00,,,0.00,,2013-05-25 20:32:00,
2013-05-25 16:42:00,84.0,69.0,30.13,ENE,60,4.0,14.0,60,0.00,,,0.00,,2013-05-25 20:42:00,
2013-05-25 16:52:00,85.0,69.0,30.12,East,88,4.0,9.0,58,0.00,,,0.00,,2013-05-25 20:52:00,
2013-05-25 17:02:00,85.0,69.0,30.12,East,93,5.0,14.0,58,0.00,,,0.00,,2013-05-25 21:02:00,
2013-05-25 17:11:00,85.0,69.0,30.12,East,93,5.0,14.0,58,0.00,,,0.00,,2013-05-25 21:11:00,
2013-05-25 17:21:00,85.0,68.0,30.12,ENE,62,3.0,15.0,57,0.00,,,0.00,,2013-05-25 21:21:00,
2013-05-25 17:33:00,85.0,69.0,30.13,ENE,69,4.0,12.0,58,0.00,,,0.00,,2013-05-25 21:33:00,
2013-05-25 17:43:00,85.0,69.0,30.13,ENE,69,4.0,12.0,58,0.00,,,0.00,,2013-05-25 21:43:00,
2013-05-25 17:53:00,84.0,67.0,30.12,NNW,333,5.0,11.0,57,0.00,,,0.00,,2013-05-25 21:53:00,
2013-05-25 18:03:00,84.0,67.0,30.12,East,94,6.0,12.0,57,0.00,,,0.00,,2013-05-25 22:03:00,
2013-05-25 18:13:00,84.0,67.0,30.12,East,94,6.0,12.0,57,0.00,,,0.00,,2013-05-25 22:13:00,
2013-05-25 18:23:00,84.0,68.0,30.12,NE,41,3.0,12.0,59,0.00,,,0.00,,2013-05-25 22:23:00,
2013-05-25 18:32:00,84.0,68.0,30.12,NE,56,1.0,12.0,58,0.00,,,0.00,,2013-05-25 22:32:00,
2013-05-25 18:42:00,84.0,68.0,30.12,NE,56,1.0,12.0,58,0.00,,,0.00,,2013-05-25 22:42:00,
2013-05-25 18:52:00,83.0,67.0,30.11,ESE,106,4.0,12.0,59,0.00,,,0.00,,2013-05-25 22:52:00,
2013-05-25 19:02:00,83.0,67.0,30.11,NW,305,6.0,11.0,59,0.00,,,0.00,,2013-05-25 23:02:00,
2013-05-25 19:12:00,83.0,67.0,30.11,NW,305,6.0,11.0,59,0.00,,,0.00,,2013-05-25 23:12:00,
2013-05-25 19:22:00,82.0,68.0,30.12,ENE,59,2.0,10.0,62,0.00,,,0.00,,2013-05-25 23:22:00,
2013-05-25 19:32:00,82.0,68.0,30.12,NNE,30,4.0,10.0,62,0.00,,,0.00,,2013-05-25 23:32:00,
2013-05-25 19:42:00,81.0,67.0,30.11,ESE,106,3.0,9.0,63,0.00,,,0.00,,2013-05-25 23:42:00,
2013-05-25 19:52:00,81.0,67.0,30.11,ESE,106,3.0,9.0,63,0.00,,,0.00,,2013-05-25 23:52:00,
2013-05-25 20:02:00,80.0,68.0,30.12,ENE,58,3.0,12.0,66,0.00,,,0.00,,2013-05-26 00:02:00,
2013-05-25 20:11:00,80.0,68.0,30.12,ENE,58,3.0,12.0,66,0.00,,,0.00,,2013-05-26 00:11:00,
2013-05-25 20:22:00,80.0,68.0,30.13,ENE,64,4.0,8.0,67,0.00,,,0.00,,2013-05-26 00:22:00,
2013-05-25 20:31:00,80.0,69.0,30.13,NNE,22,4.0,8.0,69,0.00,,,0.00,,2013-05-26 00:31:00,
2013-05-25 20:42:00,80.0,69.0,30.13,NNE,22,4.0,8.0,69,0.00,,,0.00,,2013-05-26 00:42:00,
2013-05-25 20:53:00,80.0,68.0,30.14,NE,49,1.0,11.0,68,0.00,,,0.00,,2013-05-26 00:53:00,
2013-05-25 21:01:00,79.0,67.0,30.14,East,97,3.0,12.0,67,0.00,,,0.00,,2013-05-26 01:01:00,
2013-05-25 21:11:00,79.0,67.0,30.14,East,97,3.0,12.0,67,0.00,,,0.00,,2013-05-26 01:11:00,
2013-05-25 21:21:00,79.0,68.0,30.14,ENE,70,2.0,6.0,68,0.00,,,0.00,,2013-05-26 01:21:00,
2013-05-25 21:32:00,79.0,68.0,30.14,NNE,18,2.0,7.0,68,0.00,,,0.00,,2013-05-26 01:32:00,
2013-05-25 21:42:00,79.0,68.0,30.14,NNE,18,2.0,7.0,68,0.00,,,0.00,,2013-05-26 01:42:00,
2013-05-25 21:52:00,79.0,68.0,30.15,East,86,3.0,14.0,69,0.00,,,0.00,,2013-05-26 01:52:00,
2013-05-25 22:02:00,79.0,68.0,30.16,ENE,66,3.0,8.0,69,0.00,,,0.00,,2013-05-26 02:02:00,
2013-05-25 22:11:00,79.0,68.0,30.16,ENE,66,3.0,8.0,69,0.00,,,0.00,,2013-05-26 02:11:00,
2013-05-25 22:21:00,78.0,67.0,30.16,NE,46,5.0,10.0,69,0.00,,,0.00,,2013-05-26 02:21:00,
2013-05-25 22:32:00,78.0,67.0,30.17,ENE,65,3.0,7.0,69,0.00,,,0.00,,2013-05-26 02:32:00,
2013-05-25 22:42:00,78.0,67.0,30.17,ENE,65,3.0,7.0,69,0.00,,,0.00,,2013-05-26 02:42:00,
2013-05-25 22:52:00,78.0,67.0,30.17,NE,48,1.0,7.0,69,0.00,,,0.00,,2013-05-26 02:52:00,
2013-05-25 23:01:00,78.0,67.0,30.17,East,90,2.0,8.0,70,0.00,,,0.00,,2013-05-26 03:01:00,
2013-05-25 23:11:00,78.0,67.0,30.17,East,90,2.0,8.0,70,0.00,,,0.00,,2013-05-26 03:11:00,
2013-05-25 23:22:00,78.0,68.0,30.17,East,94,2.0,7.0,72,0.00,,,0.00,,2013-05-26 03:22:00,
2013-05-25 23:33:00,78.0,68.0,30.17,East,85,1.0,9.0,72,0.00,,,0.00,,2013-05-26 03:33:00,
2013-05-25 23:43:00,78.0,68.0,30.17,East,85,1.0,9.0,72,0.00,,,0.00,,2013-05-26 03:43:00,
2013-05-25 23:53:00,78.0,68.0,30.17,ENE,70,1.0,8.0,72,0.00,,,0.00,,2013-05-26 03:53:00,